Location: Krasnoyarskiy Pitomnik
(51.1333°N, 71.6167°E)
Time: 10:08:05
(UTC+00:00)

Cosmos 44 - Pass Details

Date: 22 October 2021
Orbit: 580 x 782 km, 65.1° (Epoch: 06 December)

Event Time Altitude Azimuth Distance (km) Brightness Sun altitude
Rises 14:04:32 0° 192° (SSW) 3,252 6.8 -19.2°
Reaches altitude 10° 14:07:05 10° 184° (S) 2,331 6.0 -19.6°
Enters shadow 14:11:32 36° 130° (SE) 1,217 4.1 -20.3°
